Regional Weather Roundup
Issued by NWS

Home | Current Version | Previous Version | Graphics & Text | Print | Product List | Glossary On
Versions: 1 2 3 4 5 6 7 8 9 10 11 12 13 14 15 16 17 18 19 20 21 22 23 24 25 26 27 28 29 30 31 32 33 34 35 36 37 38 39 40 41 42 43 44 45 46 47 48 49 50
000
ASUS44 KMEG 300410
RWRTN
TENNESSEE HOURLY STATE WEATHER ROUNDUP
NATIONAL WEATHER SERVICE MEMPHIS TN
1000 PM CST THU JAN 29 2015

TNZ002-004-019-021-049-052-054-088>092-300500-
WEST TENNESSEE

CITY           SKY/WX    TMP DP  RH WIND       PRES   REMARKS
MEMPHIS INTL   CLOUDY    45  29  53 N13G20    30.40R
NWS MEMPHIS      N/A     44 N/A N/A MISG        N/A
JACKSON        CLOUDY    43  29  57 N12       30.38R
DYERSBURG      CLOUDY    43  21  42 NW8       30.41R
UNION CITY     CLOUDY    39  30  70 N16       30.36S WCI  30
PARIS          CLOUDY    37  28  70 NW7       30.35R WCI  32
LEXINGTON      CLOUDY    41  28  60 NW7       30.33R
SAVANNAH       CLOUDY    43  28  56 N10       30.35R
$$

TNZ008-025-027-028-033-062-065-066-300500-
NORTH MIDDLE TENNESSEE

CITY           SKY/WX    TMP DP  RH WIND       PRES   REMARKS
NASHVILLE      CLOUDY    41  32  70 NW14G20   30.32R
CLARKSVILLE    LGT RAIN  38  34  85 NW15      30.34R WCI  29
SMYRNA         CLOUDY    41  32  70 N10       30.33R
COOKEVILLE     CLOUDY    39  32  75 N12       30.25R WCI  32
CROSSVILLE     CLOUDY    37  29  72 NW14G22   30.21R WCI  28
$$

TNZ061-075-076-078-094-096-097-300500-
SOUTH MIDDLE TENNESSEE

CITY           SKY/WX    TMP DP  RH WIND       PRES   REMARKS
FAYETTEVILLE   CLOUDY    39  28  65 MISG      30.27R
TULLAHOMA      CLOUDY    37  28  70 N13       30.27R WCI  29
WINCHESTER     CLOUDY    39  30  70 N17       30.27R WCI  30
MCMINNVILLE    CLOUDY    39  30  70 N15       30.27R WCI  31
COLUMBIA       CLOUDY    41  34  75 N12       30.30R
SHELBYVILLE    CLOUDY    41  32  70 N9        30.30S
$$

TNZ017-018-042-046-047-300500-
NORTHEAST TENNESSEE

CITY           SKY/WX    TMP DP  RH WIND       PRES   REMARKS
TRI CITIES     CLOUDY    47  39  74 NW12G23   30.04R
ELIZABETHTON   CLOUDY    46  34  61 W8        30.01R
$$

TNZ012-013-036-069-073-074-300500-
CENTRAL EAST TENNESSEE

CITY           SKY/WX    TMP DP  RH WIND       PRES   REMARKS
KNOXVILLE      LGT RAIN  45  36  70 W15G26    30.15R
OAK RIDGE      CLOUDY    45  35  68 NW5       30.18R
GATLINBURG     CLOUDY    43  36  75 NW15      30.13R
MORRISTOWN     PTCLDY    41  36  81 N18       30.12R
$$

TNZ083-085-099-300500-
SOUTHEAST TENNESSEE

CITY           SKY/WX    TMP DP  RH WIND       PRES   REMARKS
CHATTANOOGA    CLOUDY    46  36  68 N14       30.21R
$$

SKY/WX REPORTED AS FAIR MEANS FEW OR NO CLOUDS BELOW
12 THOUSAND FEET.



USA.gov is the U.S. government's official web portal to all federal, state and local government web resources and services.